Change the Weather History Date:

Thursday, March 28, 2013

  Actual Average (KORF) Record (KORF)
Temperature  
Mean Temperature 42 °F 53 °F  
Max Temperature 55 °F 62 °F 89 °F (1907)
Min Temperature 30 °F 44 °F 28 °F (1982)
Degree Days  
Heating Degree Days 22 12  
Month to date heating degree days 457  
Since 1 July heating degree days 3026  
Cooling Degree Days 0 0  
Month to date cooling degree days 0  
Year to date cooling degree days 1  
Moisture  
Dew Point 27 °F    
Average Humidity 53    
Maximum Humidity 86    
Minimum Humidity 31    
Precipitation  
Precipitation 0.00 in 0.12 in 2.00 in (1984)
Month to date precipitation 3.33  
Year to date precipitation 9.85  
Snow  
Snow 0.00 in 0.00 in 0.80 in (1947)
Month to date snowfall 0.2  
Since 1 July snowfall 5.8  
Snow Depth -    
Sea Level Pressure  
Sea Level Pressure 30.16 in    
Wind  
Wind Speed 6 mph (WNW)    
Max Wind Speed 18 mph    
Max Gust Speed 25 mph    
Visibility 10 miles    
Events      
T = Trace of Precipitation, MM = Missing Value Source: NWS Daily Summary

Daily Weather History Graph

Daily Weather History Graph

Search for Another Location

Airport or City:

Trip Planner

Search our weather history database for the weather conditions in past years. The results will help you decide how hot, cold, wet, or windy it might be!

Date:

Astronomy

Mar. 28, 2013 Rise Set
Actual Time 6:56 AM EDT 7:24 PM EDT
Civil Twilight 6:30 AM EDT 7:50 PM EDT
Nautical Twilight 6:00 AM EDT 8:20 PM EDT
Astronomical Twilight 5:29 AM EDT 8:51 PM EDT
Moon 9:09 PM EDT (3/28) 7:26 AM EDT (3/28)
Length of Visible Light 13h 19m
Length of Day
12h 27m
Full, 98% of the Moon is Illuminated
Mar 28
Full
Apr 3
Last Quarter
Apr 10
New
Apr 18
First Quarter
Apr 25
Full

Hourly Weather History & Observations

Time (EDT) Temp. Windchill Dew Point Humidity Pressure Visibility Wind Dir Wind Speed Gust Speed Precip Events Conditions
12:15 AM 37.4 °F 34.9 °F 26.6 °F 65% 30.15 in 10.0 mi West 3.5 mph - N/A   Clear
12:35 AM 37.4 °F 32.8 °F 26.6 °F 65% 30.15 in 10.0 mi West 5.8 mph - N/A   Clear
12:55 AM 37.4 °F 32.8 °F 26.6 °F 65% 30.15 in 10.0 mi West 5.8 mph - N/A   Clear
1:15 AM 37.4 °F 32.8 °F 26.6 °F 65% 30.15 in 10.0 mi West 5.8 mph - N/A   Clear
1:35 AM 37.4 °F 33.8 °F 26.6 °F 65% 30.15 in 10.0 mi West 4.6 mph - N/A   Clear
1:55 AM 37.4 °F 32.8 °F 24.8 °F 60% 30.15 in 10.0 mi West 5.8 mph - N/A   Clear
2:15 AM 39.2 °F 35.9 °F 24.8 °F 56% 30.15 in 10.0 mi WNW 4.6 mph - N/A   Clear
2:35 AM 39.2 °F 34.2 °F 24.8 °F 56% 30.15 in 10.0 mi WNW 6.9 mph - N/A   Clear
2:55 AM 37.4 °F 33.8 °F 26.6 °F 65% 30.15 in 10.0 mi West 4.6 mph - N/A   Clear
3:15 AM 35.6 °F 31.7 °F 26.6 °F 70% 30.15 in 10.0 mi West 4.6 mph - N/A   Clear
3:35 AM 37.4 °F - 24.8 °F 60% 30.15 in 10.0 mi Calm Calm - N/A   Clear
3:55 AM 35.6 °F - 24.8 °F 65% 30.14 in 10.0 mi Calm Calm - N/A   Clear
4:15 AM 37.4 °F - 24.8 °F 60% 30.14 in 10.0 mi Calm Calm - N/A   Clear
4:35 AM 35.6 °F - 24.8 °F 65% 30.14 in 10.0 mi Calm Calm - N/A   Clear
4:55 AM 35.6 °F - 24.8 °F 65% 30.14 in 10.0 mi Calm Calm - N/A   Clear
5:15 AM 30.2 °F - 26.6 °F 86% 30.14 in 10.0 mi Calm Calm - N/A   Clear
5:35 AM 30.2 °F - 26.6 °F 86% 30.14 in 10.0 mi Calm Calm - N/A   Clear
5:55 AM 30.2 °F - 26.6 °F 86% 30.14 in 10.0 mi Calm Calm - N/A   Clear
6:15 AM 33.8 °F - 24.8 °F 70% 30.15 in 10.0 mi Calm Calm - N/A   Clear
6:35 AM 32.0 °F - 24.8 °F 75% 30.15 in 10.0 mi Calm Calm - N/A   Clear
6:55 AM 33.8 °F - 24.8 °F 70% 30.15 in 10.0 mi Calm Calm - N/A   Clear
7:15 AM 30.2 °F 26.7 °F 24.8 °F 80% 30.16 in 10.0 mi West 3.5 mph - N/A   Clear
7:35 AM 32.0 °F 28.7 °F 26.6 °F 80% 30.16 in 10.0 mi West 3.5 mph - N/A   Clear
7:55 AM 33.8 °F - 26.6 °F 75% 30.16 in 10.0 mi Calm Calm - N/A   Clear
8:15 AM 35.6 °F 32.8 °F 26.6 °F 70% 30.16 in 10.0 mi West 3.5 mph - N/A   Clear
8:35 AM 37.4 °F 32.1 °F 28.4 °F 70% 30.16 in 10.0 mi West 6.9 mph - N/A   Clear
8:55 AM 41.0 °F 35.8 °F 28.4 °F 61% 30.16 in 10.0 mi West 8.1 mph - N/A   Clear
9:15 AM 42.8 °F 37.5 °F 26.6 °F 53% 30.16 in 10.0 mi West 9.2 mph - N/A   Clear
9:35 AM 44.6 °F 39.2 °F 26.6 °F 49% 30.16 in 10.0 mi West 10.4 mph - N/A   Clear
9:55 AM 46.4 °F 41.5 °F 26.6 °F 46% 30.16 in 10.0 mi West 10.4 mph 17.3 mph N/A   Clear
10:15 AM 48.2 °F - 26.6 °F 43% 30.16 in 10.0 mi WNW 13.8 mph 18.4 mph N/A   Scattered Clouds
10:35 AM 48.2 °F - 26.6 °F 43% 30.16 in 10.0 mi WNW 11.5 mph 17.3 mph N/A   Scattered Clouds
10:55 AM 50.0 °F - 24.8 °F 37% 30.16 in 10.0 mi NW 10.4 mph 18.4 mph N/A   Clear
11:15 AM 51.8 °F - 26.6 °F 38% 30.16 in 10.0 mi WNW 12.7 mph 19.6 mph N/A   Scattered Clouds
11:35 AM 51.8 °F - 24.8 °F 35% 30.16 in 10.0 mi NW 12.7 mph 23.0 mph N/A   Scattered Clouds
11:55 AM 51.8 °F - 24.8 °F 35% 30.15 in 10.0 mi NNW 11.5 mph 17.3 mph N/A   Clear
12:15 PM 51.8 °F - 26.6 °F 38% 30.15 in 10.0 mi North 12.7 mph 17.3 mph N/A   Clear
12:35 PM 53.6 °F - 26.6 °F 35% 30.14 in 10.0 mi NW 12.7 mph 18.4 mph N/A   Mostly Cloudy
12:55 PM 53.6 °F - 26.6 °F 35% 30.14 in 10.0 mi WNW 9.2 mph 17.3 mph N/A   Mostly Cloudy
1:15 PM 53.6 °F - 24.8 °F 33% 30.14 in 10.0 mi NW 9.2 mph 17.3 mph N/A   Mostly Cloudy
1:35 PM 53.6 °F - 26.6 °F 35% 30.13 in 10.0 mi West 10.4 mph - N/A   Mostly Cloudy
1:55 PM 53.6 °F - 24.8 °F 33% 30.13 in 10.0 mi WNW 17.3 mph 21.9 mph N/A   Mostly Cloudy
2:15 PM 55.4 °F - 26.6 °F 33% 30.12 in 10.0 mi WNW 9.2 mph 17.3 mph N/A   Scattered Clouds
2:35 PM 55.4 °F - 24.8 °F 31% 30.12 in 10.0 mi NW 13.8 mph 20.7 mph N/A   Mostly Cloudy
2:55 PM 55.4 °F - 24.8 °F 31% 30.11 in 10.0 mi WNW 9.2 mph 19.6 mph N/A   Overcast
3:15 PM 55.4 °F - 26.6 °F 33% 30.11 in 10.0 mi WNW 18.4 mph 25.3 mph N/A   Mostly Cloudy
3:35 PM 53.6 °F - 24.8 °F 33% 30.11 in 10.0 mi WNW 13.8 mph 24.2 mph N/A   Mostly Cloudy
3:55 PM 53.6 °F - 26.6 °F 35% 30.11 in 10.0 mi NW 8.1 mph 13.8 mph N/A   Mostly Cloudy
4:15 PM 51.8 °F - 26.6 °F 38% 30.12 in 10.0 mi NW 11.5 mph 20.7 mph N/A   Overcast
4:35 PM 51.8 °F - 26.6 °F 38% 30.12 in 10.0 mi NW 9.2 mph - N/A   Mostly Cloudy
4:55 PM 53.6 °F - 26.6 °F 35% 30.12 in 10.0 mi NW 5.8 mph - N/A   Mostly Cloudy
5:15 PM 53.6 °F - 24.8 °F 33% 30.13 in 10.0 mi NW 8.1 mph 11.5 mph N/A   Mostly Cloudy
5:35 PM 53.6 °F - 26.6 °F 35% 30.13 in 10.0 mi North - - N/A   Mostly Cloudy
5:55 PM 53.6 °F - 24.8 °F 33% 30.14 in 10.0 mi North - - N/A   Mostly Cloudy
6:15 PM 51.8 °F - 24.8 °F 35% 30.14 in 10.0 mi North - - N/A   Mostly Cloudy
6:35 PM 53.6 °F - 26.6 °F 35% 30.15 in 10.0 mi North - - N/A   Overcast
6:55 PM 51.8 °F - 26.6 °F 38% 30.16 in 10.0 mi North - - N/A   Overcast
7:15 PM 51.8 °F - 26.6 °F 38% 30.16 in 10.0 mi North - - N/A   Overcast
7:35 PM 50.0 °F - 26.6 °F 40% 30.18 in 10.0 mi North - - N/A   Overcast
7:55 PM 50.0 °F - 28.4 °F 43% 30.19 in 10.0 mi North - - N/A   Overcast
8:15 PM 48.2 °F - 28.4 °F 46% 30.19 in 10.0 mi North - - N/A   Scattered Clouds
8:35 PM 46.4 °F - 28.4 °F 50% 30.20 in 10.0 mi North - - N/A   Scattered Clouds
8:55 PM 46.4 °F - 28.4 °F 50% 30.21 in 10.0 mi North - - N/A   Scattered Clouds
9:15 PM 46.4 °F - 28.4 °F 50% 30.22 in 10.0 mi North - - N/A   Clear
9:35 PM 46.4 °F - 30.2 °F 53% 30.23 in 10.0 mi North - - N/A   Clear
9:55 PM 44.6 °F - 30.2 °F 57% 30.23 in 10.0 mi North - - N/A   Clear
10:15 PM 41.0 °F - 30.2 °F 65% 30.24 in 10.0 mi North - - N/A   Clear
10:35 PM 39.2 °F - 30.2 °F 70% 30.24 in 10.0 mi North - - N/A   Clear
10:55 PM 37.4 °F - 30.2 °F 75% 30.24 in 10.0 mi North - - N/A   Clear
11:15 PM 39.2 °F - 30.2 °F 70% 30.24 in 10.0 mi North - - N/A   Clear
11:35 PM 42.8 °F - 30.2 °F 61% 30.24 in 10.0 mi North - - N/A   Clear
11:55 PM 42.8 °F - 30.2 °F 61% 30.24 in 10.0 mi North - - N/A   Clear